Weather History for Salisbury, MD

Change the Weather History Date:

Thursday, February 21, 2013

  Actual Average Record
Temperature  
Mean Temperature 33 °F 39 °F  
Max Temperature 40 °F 48 °F 75 °F (1943)
Min Temperature 26 °F 29 °F 9 °F (1934)
Degree Days  
Heating Degree Days 32 26  
Month to date heating degree days 563 587  
Since 1 July heating degree days 2627 3128  
Cooling Degree Days 0 0  
Month to date cooling degree days 0 0  
Year to date cooling degree days 0 0  
Moisture  
Dew Point 14 °F    
Average Humidity 44    
Maximum Humidity 50    
Minimum Humidity 37    
Precipitation  
Precipitation 0.00 in 0.12 in 1.09 in (2005)
Month to date precipitation 2.81 2.50  
Year to date precipitation 5.81 6.11  
Snow  
Snow 0.00 in 0.10 in 7.00 in (1929)
Month to date snowfall T 2.7  
Since 1 July snowfall 2.8 7.7  
Snow Depth 0.00 in    
Sea Level Pressure  
Sea Level Pressure 30.18 in    
Wind  
Wind Speed 12 mph (NW)    
Max Wind Speed 23 mph    
Max Gust Speed 36 mph    
Visibility 10 miles    
Events      
T = Trace of Precipitation, MM = Missing Value Source: NWS Daily Summary

Daily Weather History Graph

Daily Weather History Graph

Search for Another Location

Airport:

Trip Planner

Search our weather history database for the weather conditions in past years. The results will help you decide how hot, cold, wet, or windy it might be!

Date:

Astronomy

Feb. 21, 2013 Rise Set
Actual Time 6:44 AM EST 5:47 PM EST
Civil Twilight 6:17 AM EST 6:13 PM EST
Nautical Twilight 5:47 AM EST 6:44 PM EST
Astronomical Twilight 5:16 AM EST 7:15 PM EST
Moon 2:01 PM EST (2/21) 3:45 AM EST (2/21)
Length of Visible Light 11h 56m
Length of Day
11h 02m
Waxing Gibbous, 83% of the Moon is Illuminated
Feb 21
Waxing Gibbous
Feb 25
Full
Mar 4
Last Quarter
Mar 11
New
Mar 19
First Quarter

Hourly Weather History & Observations

Time (EST) Temp. Windchill Dew Point Humidity Pressure Visibility Wind Dir Wind Speed Gust Speed Precip Events Conditions
12:54 AM 28.0 °F 17.0 °F 9.0 °F 45% 30.14 in 10.0 mi NW 13.8 mph 21.9 mph N/A   Clear
1:54 AM 27.0 °F 19.5 °F 10.0 °F 49% 30.13 in 10.0 mi WNW 6.9 mph - N/A   Clear
2:54 AM 27.0 °F 19.5 °F 10.9 °F 51% 30.13 in 10.0 mi WNW 6.9 mph - N/A   Clear
3:54 AM 27.0 °F 19.5 °F 10.9 °F 51% 30.13 in 10.0 mi WNW 6.9 mph - N/A   Clear
4:54 AM 27.0 °F 18.7 °F 10.9 °F 51% 30.14 in 10.0 mi WNW 8.1 mph - N/A   Clear
5:54 AM 27.0 °F 18.0 °F 10.9 °F 51% 30.14 in 10.0 mi WNW 9.2 mph - N/A   Clear
6:54 AM 26.1 °F 17.6 °F 10.9 °F 53% 30.15 in 10.0 mi WNW 8.1 mph - N/A   Clear
7:54 AM 28.0 °F 19.3 °F 10.9 °F 49% 30.17 in 10.0 mi WNW 9.2 mph 17.3 mph N/A   Clear
8:54 AM 30.9 °F 20.7 °F 12.0 °F 46% 30.18 in 10.0 mi WNW 13.8 mph 19.6 mph N/A   Partly Cloudy
9:54 AM 33.1 °F 22.2 °F 12.9 °F 43% 30.18 in 10.0 mi NNW 17.3 mph 27.6 mph N/A   Scattered Clouds
10:54 AM 34.0 °F 22.7 °F 14.0 °F 44% 30.18 in 10.0 mi NW 19.6 mph 26.5 mph N/A   Partly Cloudy
11:54 AM 36.0 °F 25.6 °F 14.0 °F 41% 30.16 in 10.0 mi NW 18.4 mph 26.5 mph N/A   Clear
12:54 PM 37.0 °F 27.7 °F 15.1 °F 41% 30.14 in 10.0 mi WNW 16.1 mph 25.3 mph N/A   Clear
1:54 PM 37.9 °F 30.5 °F 15.1 °F 39% 30.14 in 10.0 mi WNW 11.5 mph 26.5 mph N/A   Clear
2:54 PM 39.0 °F 29.6 °F 15.1 °F 38% 30.13 in 10.0 mi WNW 18.4 mph 25.3 mph N/A   Clear
3:54 PM 39.9 °F 31.4 °F 16.0 °F 38% 30.14 in 10.0 mi WNW 16.1 mph 23.0 mph N/A   Clear
4:54 PM 37.9 °F 28.2 °F 16.0 °F 41% 30.15 in 10.0 mi NW 18.4 mph 27.6 mph N/A   Clear
5:54 PM 37.0 °F 28.5 °F 16.0 °F 42% 30.20 in 10.0 mi NW 13.8 mph 26.5 mph N/A   Clear
6:54 PM 35.1 °F 27.4 °F 16.0 °F 46% 30.23 in 10.0 mi NW 10.4 mph - N/A   Clear
7:54 PM 34.0 °F 27.2 °F 16.0 °F 48% 30.27 in 10.0 mi NW 8.1 mph - N/A   Clear
8:54 PM 33.1 °F 26.9 °F 16.0 °F 50% 30.28 in 10.0 mi NW 6.9 mph - N/A   Clear
9:54 PM 33.1 °F 26.9 °F 16.0 °F 50% 30.29 in 10.0 mi NW 6.9 mph - N/A   Clear
10:54 PM 32.0 °F 25.6 °F 16.0 °F 52% 30.30 in 10.0 mi NW 6.9 mph - N/A   Clear
11:54 PM 33.1 °F 24.4 °F 16.0 °F 50% 30.30 in 10.0 mi NNW 11.5 mph - N/A   Clear